Flag for U.S.A. Weather past 2 weeks in Youngstown, Ohio, U.S.A.

Now
39 °F

Fog.


Feels Like: 39 °F
Forecast: 38 / 60 °F
Wind: No wind

Location: Youngstown-Warren Regional Airport

Current Time: Oct 24, 2014 at 4:31:57 AM

Latest Report: Oct 24, 2014 at 3:51 AM


Visibility: 10 mi

Pressure: 30.09 "Hg

Humidity: 96%

Dew point: 38 °F

Location of YoungstownLocation

Historic Weather in Youngstown — Graph

°F

Youngstown temperature yesterday

Maximum temperature yesterday: 60 °F (at 2:51 PM)
Minimum temperature yesterday: 40 °F (at 5:51 AM)
Average temperature yesterday: 49 °F

Past Weeks' High & Low Weather Summary

 TemperatureHumidityPressure
High79 °F (Oct 14, 3:51 PM)100% (Oct 10, 5:51 AM)30.24 "Hg (Oct 10, 5:51 AM)
Low31 °F (Oct 12, 5:51 AM)42% (Oct 14, 4:51 PM)29.57 "Hg (Oct 17, 2:51 PM)
Average52 °F80%29.98 "Hg
* Reported Oct 9 2:51 AM — Oct 24 2:51 AM, Youngstown, Weather by CustomWeather, © 2014

Note: Actual official high and low records may vary slightly from our data, if they occured in-between our weather recording intervals... More about our weather records

Advertising

Youngstown weather history for previous 24 hours

 ConditionsComfort  
Time TempWeatherWind HumidityBarometerVisibility
2:51 AM
Oct 24
41 °FFog.No wind96%30.09 "Hg10 mi
1:51 AM42 °FFog.6 mph92%30.08 "Hg8 mi
12:51 AM41 °FFog.6 mph96%30.08 "Hg10 mi
11:51 PM
Oct 23
42 °FPassing clouds.5 mph92%30.09 "Hg9 mi
10:51 PM44 °FPassing clouds.6 mph89%30.11 "Hg10 mi
9:51 PM45 °FPassing clouds.8 mph90%30.11 "Hg10 mi
8:51 PM46 °FPassing clouds.5 mph86%30.12 "Hg10 mi
7:51 PM48 °FPassing clouds.6 mph80%30.12 "Hg10 mi
6:51 PM50 °FPassing clouds.8 mph74%30.11 "Hg10 mi
5:51 PM54 °FPassing clouds.13 mph67%30.10 "Hg10 mi
4:51 PM57 °FPassing clouds.15 mph60%30.10 "Hg10 mi
3:51 PM58 °FPassing clouds.15 mph58%30.10 "Hg10 mi
2:51 PM60 °FPartly sunny.13 mph53%30.11 "Hg10 mi
1:51 PM59 °FPartly sunny.14 mph58%30.13 "Hg10 mi
12:51 PM57 °FPartly sunny.15 mph62%30.14 "Hg10 mi
11:51 AM55 °FPartly sunny.12 mph69%30.16 "Hg10 mi
10:51 AM52 °FScattered clouds.15 mph75%30.17 "Hg10 mi
9:51 AM49 °FScattered clouds.10 mph86%30.18 "Hg10 mi
8:51 AM45 °FPassing clouds.6 mph93%30.18 "Hg7 mi
7:59 AM42 °FFog.7 mph96%30.17 "Hg3 mi
6:51 AM44 °FOvercast.7 mph93%30.18 "Hg9 mi
5:51 AM40 °FPassing clouds.6 mph97%30.17 "Hg7 mi
4:51 AM44 °FPassing clouds.8 mph93%30.17 "Hg10 mi
Weather by CustomWeather, © 2014

See weather overviewHow to use our weather pages